Lachezar Bojinov

Recruteur - Ludogorets
20 Janv 2028
Jeudi
Processus

Personnalité

Adaptabilité (8) Ambition (2) Controverse (3) Loyauté (3) Pression (1) Professionnalisme (6) Sportivité (6) Tempérament (10)

Profil

Style d'entraînement Démocratique
Diplôme Continental A
Détermination 11
Gestion des joueurs 6
Motivation 6
Discipline 7
Satisfaction professionnelle
100%
Fatigue
0%
Rôle Recruteur
Salaire 71.8K p/s
Contrat 14.03.2030

Performance

Comportement Bon
Efficacité de l'entraînement
48%
Développement des joueurs
30%
Prévention des blessures
60%
Mise en place tactique
55%

Événements récents

En formation continue maintenant
A participé à une réunion de recrutement maintenant
A participé à une réunion de recrutement maintenant
A participé à une réunion de recrutement maintenant
A recommandé une cible de transfert maintenant
A recommandé une cible de transfert maintenant
A participé à une réunion de recrutement maintenant
En formation continue 7j

Suivi en cours

272
Joueur Club Statut Capacité Confiance Observé Dernière observation Dernier vote
Davide Mastrantonio Latina Actif 99 / 119 40% 1 08.01.2028 -
William Rovida Pro Patria Actif 102 / 126 40% 1 08.01.2028 -
Todor Nedelev Botev Plovdiv Rapport prêt 99 / 113 62% 1 07.01.2028 -
Yousef Salech Cardiff City Actif 147 / 142 40% 6 01.01.2028 -
Everton Bala Levski Actif 124 / 136 40% 5 01.01.2028 Observer
Bryan Ramírez FC Cincinnati Actif 118 / 133 40% 3 31.12.2027 -
César Pérez Defensa y Justicia Actif 131 / 129 40% 1 31.12.2027 -
Hwang Hee-Chan Wolverhampton Actif 153 / 136 40% 7 29.12.2027 -
Zito Luvumbo Cagliari Actif 123 / 139 40% 2 28.12.2027 -
Louis Munteanu DC United Actif 124 / 131 40% 3 26.12.2027 -
Tyrese Campbell Sheffield United Actif 127 / 142 40% 3 26.12.2027 -
Zeki Amdouni Burnley Actif 139 / 141 40% 1 25.12.2027 -
Berna CSKA 1948 Actif 129 / 113 40% 2 24.12.2027 -
William Osula Wrexham Actif 123 / 131 40% 2 24.12.2027 -
Mathias Jørgensen Blackburn Rovers Actif 130 / 132 40% 2 24.12.2027 -
Richarlison Brentford Actif 135 / 155 40% 4 22.12.2027 -
Alexis Cuello San Lorenzo Actif 118 / 131 40% 1 22.12.2027 -
Ez Abde Girona Actif 170 / 156 40% 6 20.12.2027 -
Darwin Núñez Al-Hilal Actif 143 / 163 40% 4 19.12.2027 -
Yuma Suzuki Urawa Reds Perdu 145 / 140 40% 2 19.12.2027 -
Lewis Morgan SuperSport United Actif 137 / 131 40% 11 18.12.2027 -
Lautaro Guzmán Lanús Actif 115 / 125 40% 2 16.12.2027 -
Youssef En-Nesyri Al-Ittihad Actif 146 / 136 40% 5 16.12.2027 -
Emiliano Álvarez Progreso Actif 131 / 111 40% 2 16.12.2027 -
Santiago González Tigre Actif 138 / 119 40% 1 14.12.2027 -
Alan Lescano Argentinos Juniors Actif 147 / 117 40% 2 10.12.2027 -
Augusto Schott Talleres Actif 123 / 129 40% 1 10.12.2027 -
Antony Alonso Deportivo Riestra Actif 137 / 126 40% 1 09.12.2027 -
Mohamed-Ali Cho Hull City Actif 135 / 130 40% 6 07.12.2027 -
Afimico Pululu Rosario Central Perdu 139 / 139 40% 2 07.12.2027 -
Ammar Ramadan DAC Dunajska Streda Actif 122 / 125 40% 2 06.12.2027 -
Luciano Gondou CSKA Moscow Actif 140 / 122 40% 9 05.12.2027 -
Marcelino Moreno Lanús Actif 136 / 141 40% 3 05.12.2027 -
Luciano Cosentino Wanderers Actif 113 / 126 40% 2 05.12.2027 -
Richard Koné Queens Park Rangers Actif 130 / 133 40% 5 04.12.2027 -
Rumarn Burrell Queens Park Rangers Actif 133 / 139 40% 2 04.12.2027 -
Duvan Rangel La Equidad Actif 125 / 136 40% 4 01.12.2027 -
Juan Infante Atlético Tucumán Actif 119 / 119 40% 2 01.12.2027 -
Ruben van Bommel Ferencvaros Actif 140 / 138 40% 3 29.11.2027 -
Rhian Brewster Oxford United Actif 116 / 137 40% 2 29.11.2027 -
Mateusz Bogusz Houston Dynamo Actif 129 / 119 40% 1 28.11.2027 -
Liam Delap Nottingham Forest Actif 156 / 144 40% 4 26.11.2027 -
Juan Brunetta FC Copenhagen Actif 151 / 153 40% 2 25.11.2027 -
Gonzalo Fulham Actif 157 / 142 40% 1 24.11.2027 -
Harry Wilson Leeds United Actif 143 / 152 40% 1 22.11.2027 -
Diego García Defensor Sporting Actif 121 / 106 40% 1 22.11.2027 -
Dwight McNeil Crystal Palace Actif 146 / 138 40% 1 21.11.2027 -
Gonzalo Plata Rosario Central Actif 137 / 146 40% 1 17.11.2027 -
Germán Berterame Vélez Actif 129 / 134 40% 1 17.11.2027 -
Jonathan David Juventus Actif 156 / 156 40% 3 12.11.2027 -
Thierno Barry Norwich City Actif 157 / 130 40% 2 12.11.2027 -
Brennan Johnson Stoke City Actif 140 / 156 40% 1 08.11.2027 -
Mojmír Chytil NK Maribor Actif 135 / 127 40% 1 06.11.2027 -
Steven Bergwijn Al-Ittihad Actif 157 / 144 40% 2 05.11.2027 -
Jhonatan Candia Barracas Central Actif 119 / 129 40% 2 02.11.2027 -
Sasha Marcich Lanús Actif 120 / 110 40% 2 02.11.2027 -
Hany Mukhtar Spezia Actif 131 / 141 40% 7 01.11.2027 -
Brian Brobbey Sunderland Actif 154 / 144 40% 1 31.10.2027 -
César Ibáñez Huracán Actif 135 / 126 40% 2 28.10.2027 -
Fábio Carvalho Sheffield Wednesday Actif 135 / 154 40% 1 28.10.2027 -
Largie Ramazani Leeds United Actif 144 / 143 40% 2 26.10.2027 -
Patson Daka Leicester City Actif 143 / 118 40% 2 25.10.2027 -
Alexander Díaz Deportivo Riestra Actif 110 / 108 40% 2 21.10.2027 -
Gabriel Neves Estudiantes Actif 115 / 115 40% 1 21.10.2027 -
Antonio Galeano Remo Stars Actif 123 / 132 40% 4 20.10.2027 -
Joe Gelhardt Hull City Actif 136 / 132 40% 3 14.10.2027 -
Gastón Lodico Racing Club Actif 134 / 140 40% 2 14.10.2027 -
Jean-Philippe Mateta Crystal Palace Actif 156 / 144 40% 1 11.10.2027 -
Cameron Archer Southampton Actif 129 / 138 40% 1 10.10.2027 -
Oleksii Hutsuliak Polissia Actif 123 / 123 40% 1 10.10.2027 -
Haji Wright Chesterfield Actif 149 / 147 40% 1 08.10.2027 -
Sebastián Medina Tigre Actif 137 / 132 40% 2 07.10.2027 -
Ivan Toney Al-Ahli Actif 166 / 146 40% 1 05.10.2027 -
Noah Okafor Leeds United Actif 159 / 148 40% 1 05.10.2027 -
Matko Miljevic Racing Club Actif 134 / 123 40% 1 03.10.2027 -
Pavel Bucha FC Cincinnati Actif 140 / 120 40% 1 30.09.2027 -
Edwuin Cetré Estudiantes Actif 141 / 138 40% 1 30.09.2027 -
Riqui Puig LA Galaxy Actif 144 / 147 40% 2 29.09.2027 -
Joseph Paintsil LA Galaxy Actif 144 / 126 40% 1 29.09.2027 -
Joaquín Gho Argentinos Juniors Actif 134 / 135 40% 1 28.09.2027 -
Matías Fernández Independiente Rivadavia Actif 135 / 106 40% 1 28.09.2027 -
Facundo Altamira Godoy Cruz Actif 132 / 109 40% 1 25.09.2027 -
Lucas Souto Defensa y Justicia Actif 129 / 134 40% 2 23.09.2027 -
Anders Dreyer San Diego Football Club Actif 117 / 128 40% 1 23.09.2027 -
Manuel Duarte Barracas Central Actif 108 / 129 40% 2 22.09.2027 -
Alejo Cruz Juventud Actif 137 / 111 40% 2 18.09.2027 -
Ulises Sánchez Gimnasia y Esgrima Actif 133 / 132 40% 1 18.09.2027 -
Tiago Palacios Estudiantes Actif 136 / 141 40% 1 12.09.2027 -
Matías Zaracho Racing Club Actif 116 / 132 40% 1 08.09.2027 -
Vicente Poggi Godoy Cruz Actif 130 / 136 40% 1 08.09.2027 -
Gonzalo Abrego Godoy Cruz Actif 115 / 126 40% 1 06.09.2027 -
Gastón Togni Defensa y Justicia Actif 117 / 130 40% 1 06.09.2027 -
Jayden Danns Wigan Athletic Actif 121 / 130 40% 1 31.08.2027 -
Imran Oulad Omar Dinamo Batumi Actif 112 / 113 40% 1 23.08.2027 -
Dany Mota Monza Actif 123 / 129 40% 2 16.08.2027 -
Nadir Zortea Bologna Actif 139 / 151 40% 2 10.08.2027 -
Ilario Monterisi Frosinone Actif 149 / 139 40% 1 10.08.2027 -
Morgan Whittaker Middlesbrough Actif 138 / 129 40% 2 08.08.2027 -
Tyreece Campbell Charlton Athletic Actif 135 / 112 40% 1 08.08.2027 -
Aune Heggebø West Bromwich Albion Actif 129 / 135 40% 2 07.08.2027 -
Aidomo Emakhu Oxford United Actif 118 / 135 40% 1 07.08.2027 -
Kelly Saravanan Salford City Actif 122 / 125 40% 1 06.08.2027 -
Will Lankshear Middlesbrough Actif 128 / 126 40% 3 03.08.2027 -
Toby Collyer West Bromwich Albion Actif 122 / 145 40% 2 02.08.2027 -
Christian Saydee Wigan Athletic Actif 109 / 125 40% 1 02.08.2027 -
Iwan Morgan Grimsby Town Actif 114 / 109 40% 1 02.08.2027 -
Julio Alonso Huesca Actif 122 / 118 40% 1 02.08.2027 -
Tommy Conway Middlesbrough Actif 132 / 137 40% 4 31.07.2027 -
Leo Castledine Middlesbrough Actif 129 / 132 40% 1 31.07.2027 -
Luis Vázquez Birmingham Actif 122 / 126 40% 1 29.07.2027 -
Evidence Makgopa Orlando Pirates Actif 112 / 124 40% 1 29.07.2027 -
Zakaria Aboukhlal Torino Actif 139 / 144 40% 1 28.07.2027 -
Chris Mepham West Bromwich Albion Actif 140 / 142 40% 1 26.07.2027 -
Shea Charles Southampton Actif 146 / 149 40% 1 26.07.2027 -
Bojan Radulović Huddersfield Town Actif 118 / 123 40% 1 25.07.2027 -
Nikola Vlašić Torino Actif 150 / 138 40% 1 22.07.2027 -
Armando Broja Burnley Actif 129 / 127 40% 1 20.07.2027 -
Victor Torp Coventry City Actif 122 / 119 40% 1 19.07.2027 -
Wilson Isidor Sunderland Actif 133 / 140 40% 1 19.07.2027 -
Isaiah Jones Luton Town Actif 132 / 131 40% 1 16.07.2027 -
Ryoya Morishita Blackburn Rovers Actif 118 / 114 40% 1 15.07.2027 -
Bosun Lawal Stoke City Actif 137 / 131 40% 1 14.07.2027 -
Stanley Mills Oxford United Actif 115 / 125 40% 1 14.07.2027 -
Lorenzo Di Stefano Torres Actif 101 / 111 40% 1 14.07.2027 -
Bradley Fink Wycombe Wanderers Actif 109 / 124 40% 1 14.07.2027 -
Sam Bell Bristol City Actif 122 / 125 40% 1 12.07.2027 -
Ilyas Ansah Hull City Actif 134 / 126 40% 1 12.07.2027 -
Derensili Sanches Fernandes Huddersfield Town Actif 116 / 114 40% 4 10.07.2027 -
Azor Matusiwa Ipswich Town Actif 141 / 131 40% 1 10.07.2027 -
Callum O'Hare Sheffield United Actif 146 / 127 40% 2 09.07.2027 -
Santiago Pierotti Lecce Actif 128 / 122 40% 1 09.07.2027 -
Mandla Erasmus SuperSport United Actif 130 / 121 40% 4 06.07.2027 -
Ben Sheaf Wrexham Actif 120 / 130 40% 2 06.07.2027 -
Callum Doyle Wrexham Actif 140 / 128 40% 1 03.07.2027 -
Josh Tymon Swansea City Actif 140 / 122 40% 1 02.07.2027 -
Will Smallbone Southampton Actif 132 / 132 40% 1 01.07.2027 -
Ronnie Edwards Queens Park Rangers Actif 123 / 121 40% 1 01.07.2027 -
Fedor Lapoukhov CSKA Sofia Actif 117 / 119 40% 1 30.06.2027 -
Max O'Leary West Bromwich Albion Actif 133 / 114 40% 1 30.06.2027 -
Edoardo Bove Watford Actif 135 / 132 40% 1 28.06.2027 -
Milan van Ewijk Mansfield Town Actif 131 / 141 40% 3 26.06.2027 -
Isaac Price West Bromwich Albion Actif 122 / 123 40% 1 26.06.2027 -
Kwame Poku Queens Park Rangers Actif 115 / 117 40% 2 24.06.2027 -
Etiosa Ighodaro Kaizer Chiefs Actif 122 / 105 40% 1 24.06.2027 -
Caolan Boyd-Munce Wycombe Wanderers Actif 118 / 128 40% 2 21.06.2027 -
Adam Randell Bristol City Actif 128 / 125 40% 1 21.06.2027 -
Cristian Shpendi Cesena Actif 121 / 147 40% 3 18.06.2027 -
Konan N'Dri Lecce Actif 136 / 124 40% 1 18.06.2027 -
Jack Currie Oxford United Actif 122 / 134 40% 1 14.06.2027 -
Stanislav Ivanov Arda Actif 115 / 127 62% 1 04.06.2027 Approuver
Mustapha Sangaré Levski Actif 117 / 121 62% 1 01.06.2027 Approuver
Egil Selvik Watford Actif 125 / 133 40% 1 01.06.2027 -
Michael Cooper Sheffield United Actif 121 / 125 40% 2 31.05.2027 -
Radek Vítek Middlesbrough Actif 134 / 128 40% 1 31.05.2027 -
Riley McGree Middlesbrough Actif 127 / 131 40% 2 30.05.2027 -
Derry Murkin Derby County Actif 132 / 124 40% 1 26.05.2027 -
Cristopher Varela Deportivo La Guaira Actif 110 / 104 40% 2 24.05.2027 -
Scott Twine Bristol City Actif 131 / 120 40% 1 24.05.2027 -
Tatsuhiro Sakamoto Coventry City Actif 139 / 124 40% 1 24.05.2027 -
Jason Knight Bristol City Actif 137 / 143 40% 2 22.05.2027 -
Maduka Okoye Udinese Actif 151 / 149 40% 1 22.05.2027 -
Othmane Maamma Watford Actif 120 / 121 40% 2 18.05.2027 -
Lewis Bate Stockport County Actif 120 / 132 40% 1 18.05.2027 -
Leandro Martins Benfica Actif 80 / 111 40% 1 17.05.2027 -
Keagan Tau Ajax Cape Town Actif 87 / 96 40% 1 17.05.2027 -
Callum Brittain Middlesbrough Actif 136 / 121 40% 1 14.05.2027 -
Sorba Thomas Stoke City Actif 124 / 138 40% 2 13.05.2027 -
Mamadou Sangaré Brentford Actif 142 / 131 40% 1 11.05.2027 -
Kasey McAteer Ipswich Town Actif 132 / 121 40% 1 11.05.2027 -
Aaron Collins Milton Keynes Dons Actif 126 / 119 40% 1 07.05.2027 -
Darryl Bakola Padova Actif 116 / 123 40% 1 06.05.2027 -
Percy Jali Free State Stars Actif 93 / 100 40% 1 06.05.2027 -
Enzo Vázquez Central Norte Actif 124 / 109 40% 2 05.05.2027 -
Alessio Zerbin Frosinone Actif 119 / 117 40% 2 03.05.2027 -
Cher Ndour Fiorentina Actif 130 / 137 40% 1 03.05.2027 -
Daniel Kelly Oxford United Actif 107 / 109 40% 2 01.05.2027 -
Gaetano Castrovilli Cesena Actif 132 / 114 40% 2 01.05.2027 -
Jorge Meireles AVS Actif 115 / 112 40% 2 30.04.2027 -
Younes Ebnoutalib Eintracht Frankfurt Actif 124 / 122 40% 1 30.04.2027 -
Zaïd BafdilI Sporting CP Actif 88 / 114 40% 1 28.04.2027 -
Álex Centelles Levski Actif 133 / 128 40% 7 27.04.2027 Observer
Jofre Torrents Ajax Actif 120 / 130 40% 2 26.04.2027 -
Nazareno Kihm Ferro Carril Oeste Actif 105 / 110 40% 1 26.04.2027 -
Kristian Thorstvedt Sassuolo Actif 128 / 136 40% 2 25.04.2027 -
Jayden Addai Como Actif 138 / 123 40% 1 25.04.2027 -
Nahuel Galardi Maipú Actif 120 / 109 40% 1 24.04.2027 -
Matevž Vidovšek Olimpija Ljubljana Actif 130 / 127 40% 1 24.04.2027 -
Che Adams Torino Actif 127 / 133 40% 4 23.04.2027 -
Victor Parada Spartak Moscow Actif 122 / 131 40% 3 20.04.2027 -
Marquinhos Spartak Moscow Actif 138 / 137 40% 7 19.04.2027 -
Georges-Kévin Nkoudou Al-Diriyah Actif 145 / 135 40% 2 17.04.2027 -
Mattéo Tramoni Pisa Actif 142 / 145 40% 1 17.04.2027 -
Sascha Britschgi Padova Actif 106 / 121 40% 1 15.04.2027 -
Davide Bartesaghi AC Milan Actif 121 / 123 40% 1 13.04.2027 -
Samuele di Benedetto Bari Actif 122 / 119 40% 1 13.04.2027 -
John Yeboah Venezia Actif 124 / 111 40% 1 13.04.2027 -
Eduardo Felicíssimo Sporting CP Actif 99 / 113 40% 2 11.04.2027 -
Dmitry Pestryakov Dinamo Moscow Actif 112 / 125 40% 1 11.04.2027 -
Gabriel Strefezza Palermo Actif 117 / 135 40% 2 09.04.2027 -
Keagan Phiri Platinum Stars Actif 97 / 102 40% 1 08.04.2027 -
Elia Boseggia Novara Actif 109 / 127 40% 1 07.04.2027 -
Domenico Berardi Sassuolo Actif 148 / 143 40% 1 05.04.2027 -
Lameck Banda Lecce Actif 115 / 140 40% 1 04.04.2027 -
Mohau Nkota Al-Ettifaq Actif 109 / 117 40% 2 03.04.2027 -
Esequiel Barco Spartak Moscow Actif 135 / 130 40% 2 01.04.2027 -
Filippo Ranocchia Palermo Actif 142 / 118 40% 1 01.04.2027 -
Yacine Adli Al-Shabab Actif 145 / 132 40% 2 30.03.2027 -
Santiago Silva CFR Cluj Actif 118 / 126 40% 2 30.03.2027 -
Samuele Angori Pisa Actif 127 / 145 40% 1 30.03.2027 -
George Wickens Lincoln City Actif 125 / 127 40% 1 30.03.2027 -
Hlompho Lorch Ajax Cape Town Actif 102 / 104 40% 1 28.03.2027 -
Martim Cunha Porto Actif 87 / 98 40% 1 28.03.2027 -
Jerónimo Pourtau Talleres Actif 105 / 124 40% 2 26.03.2027 -
Rubens Dinamo Moscow Actif 133 / 133 40% 4 25.03.2027 -
Gonçalo Oliveira Benfica Actif 99 / 124 40% 1 23.03.2027 -
Marko Grujić Levski Actif 132 / 115 40% 1 18.03.2027 -
Mazire Soula Levski Actif 110 / 114 40% 1 17.03.2027 Plus d'infos
José Martínes CSKA 1948 Actif 111 / 109 40% 1 16.03.2027 -
Anton Miranchuk Dinamo Moscow Actif 125 / 129 40% 1 16.03.2027 -
Nikita Kokarev Zenit Actif 115 / 124 40% 3 13.03.2027 -
Sol Brynn Krasnodar Actif 131 / 123 40% 1 13.03.2027 -
Ilja Vakhania Krasnodar Actif 126 / 116 40% 2 09.03.2027 -
Alexandr Siljanov Lokomotiv Moscow Actif 132 / 123 40% 1 09.03.2027 -
Siaka Diaby Stade Malien Actif 107 / 91 40% 1 28.02.2027 -
Ander Astralaga Real Sociedad Actif 130 / 123 40% 1 26.02.2027 -
Bradley Mabunda SuperSport United Actif 115 / 112 40% 2 25.02.2027 -
Williams Manyama SuperSport United Actif 121 / 124 40% 1 23.02.2027 -
Alexandr Koryakin Krasnodar Actif 116 / 105 40% 1 19.02.2027 -
Bento Al-Nassr Actif 141 / 128 40% 1 19.02.2027 -
Matevž Dajčar Olimpija Ljubljana Actif 115 / 102 40% 1 18.02.2027 -
Aldo Pérez Guarani Actif 126 / 121 40% 2 16.02.2027 -
Felipe San Juan Gimnasia y Esgrima Actif 102 / 100 40% 1 16.02.2027 -
Santiago Roggero Gimnasia y Esgrima Actif 117 / 106 40% 1 14.02.2027 -
Richard Ludha MFK Skalica Actif 106 / 106 40% 1 09.02.2027 -
Tomás Durso Atlético Tucumán Actif 110 / 116 40% 1 04.02.2027 -
Maksim Samorodov Akhmat Grozny Actif 120 / 115 40% 1 04.02.2027 -
Manfred Ugalde Spartak Moscow Actif 124 / 133 40% 1 03.02.2027 -
Oswin Appollis Orlando Pirates Actif 116 / 128 40% 3 27.12.2026 -
Juan Giménez Celta Actif 110 / 111 40% 1 27.12.2026 -
Gonçalo Nogueira Vitoria Guimaraes Actif 125 / 116 40% 1 27.12.2026 -
Femi Seriki Sheffield United Actif 129 / 118 40% 2 26.12.2026 -
Denzel Jubitana Neftchi Actif 128 / 126 40% 1 21.12.2026 -
Suleiman Camara Slovan Bratislava Actif 121 / 124 40% 1 19.12.2026 -
Bongani Modiba Black Aces Actif 111 / 115 40% 1 09.12.2026 -
Parfait Guiagon Al-Taawoun Actif 114 / 137 40% 2 05.12.2026 -
Marcelo Allende Mamelodi Sundowns Actif 126 / 122 40% 1 30.11.2026 -
Crysencio Summerville Al-Hilal Actif 137 / 133 40% 2 18.11.2026 -
Kein Sato FC Tokyo Actif 143 / 138 40% 1 07.11.2026 -
Christos Mouzakitis Hull City Actif 137 / 129 40% 1 04.11.2026 -
Rahim Ibrahim Slovan Bratislava Actif 131 / 131 40% 2 01.11.2026 -
James Eto'o CSKA Sofia Actif 116 / 127 40% 3 29.10.2026 -
Andrei Cordea CFR Cluj Actif 112 / 122 40% 1 22.10.2026 -
Pastor CSKA Sofia Actif 115 / 110 40% 1 12.10.2026 -
Anderson Arroyo Rubin Actif 125 / 119 40% 1 05.10.2026 -
Ramiro Ruiz Rodríguez Atlético Tucumán Actif 130 / 119 40% 2 29.09.2026 -
Costinha Brighton Actif 110 / 123 40% 1 24.09.2026 -
João Gomes Aston Villa Actif 154 / 139 40% 1 21.09.2026 -
Matthias Seidl Rapid Wien Actif 115 / 137 40% 1 20.09.2026 -
Eduard Spertsyan Al-Ahli Actif 130 / 148 40% 1 17.09.2026 -
Fernando Costanza Krylya Sovetov Actif 122 / 130 40% 2 15.09.2026 -
Mariano Bracamonte Deportivo Riestra Actif 103 / 129 40% 1 13.09.2026 -
Samú Al-Nassr Actif 129 / 135 40% 1 10.09.2026 -
Svit Sešlar NK Celje Actif 129 / 125 40% 1 07.09.2026 -
Jack Fletcher Manchester United Actif 116 / 106 40% 1 06.09.2026 -
João Simões Sporting CP Actif 126 / 121 40% 1 05.09.2026 -
Iker Córdoba Valencia Actif 98 / 107 40% 1 05.09.2026 -
Miodrag Pivaš Bristol City Actif 114 / 122 40% 1 04.09.2026 -
Felipe Obradovich Ferro Carril Oeste Actif 103 / 130 40% 1 03.09.2026 -
Nejc Viher NK Maribor Actif 107 / 116 40% 1 01.09.2026 -
Ignacio Ovando Rosario Central Actif 88 / 121 40% 1 18.08.2026 -
Joel Godoy Sarmiento Actif 118 / 104 40% 1 18.08.2026 -
Parvizjon Umarbaev Lokomotiv Plovdiv Actif 117 / 106 58% 1 03.08.2026 -